[[{"header":{"parameterUnit":"m.s-1","parameterCategory":1,"la1":30.2991,"la2":30.254,"lo1":-89.0895,"lo2":-89.0444,"dy":0.0017,"dx":0.0017,"nx":28,"ny":28,"refTime":"2024-07-06T21:00:00:Z","depth":0,"parameterNumber":2,"parameterNumberName":"U-component_of_WINDS"},"data":[0,0,0,0,0,0,0,0,0,0,0,0,0,0,0,0,0,0,0,0,0,0,0,0,0,0,0,0,0,0,0,0,0,0,0,0,0,0,0,0,0,0,0,0,0,0,0,0,0,0,0,0,0,0,0,0,0,0,0.3778,0.3779,0,0.3856,0.3857,0.3858,0.3896,0.3896,0.3896,0.3896,0.3976,0.3978,0.398,0,0,0,0,0,0,0,0,0,0,0,0,0,0.3661,0.3663,0.3778,0.3779,0.378,0.3856,0.3857,0.3858,0.3896,0.3896,0.3896,0.3896,0.3975,0.3977,0.398,0,0,0,0,0,0,0,0,0,0,0,0,0,0.3723,0.3664,0.3778,0.3808,0.3812,0.3856,0.3857,0.3858,0.3896,0.3896,0.3896,0.3896,0.3974,0.3977,0.398,0.4,0,0,0.399,0.3991,0,0,0,0,0,0,0,0,0.3719,0.3727,0.3803,0.3806,0.381,0.3866,0.3845,0.3906,0.3896,0.3864,0.3896,0.3896,0.3939,0.3945,0.396,0.4004,0.4007,0.399,0.3992,0.3994,0.3995,0,0,0,0,0,0,0,0.3715,0.3724,0.3809,0.3804,0.3808,0.3817,0.3826,0.3857,0.3901,0.3867,0.387,0.3878,0.3941,0.3957,0.3962,0.4009,0.399,0.3993,0.3995,0.3996,0.4072,0.4072,0,0,0,0,0,0,0.3706,0.372,0.3806,0.3811,0.3764,0.382,0.3829,0.3848,0.39,0.3908,0.3878,0.388,0.3951,0.3958,0.3965,0.3992,0.3994,0.3997,0.3998,0.4072,0.4072,0.4072,0,0,0,0,0,0,0.3703,0.3713,0.3803,0.3766,0.3779,0.3822,0.3843,0.385,0.3865,0.3909,0.3917,0.3886,0.3952,0.3961,0.3991,0.3995,0.3998,0.4001,0.4072,0.4072,0.4072,0.4045,0,0,0,0,0,0,0.37,0.3712,0.372,0.3766,0.378,0.3828,0.3843,0.3851,0.3871,0.3874,0.3919,0.3926,0.3952,0.3986,0.3994,0.3999,0.4003,0.4072,0.4072,0.4072,0.4046,0.4044,0.4043,0,0,0,0,0,0.3695,0.3709,0.372,0.3731,0.3792,0.3828,0.3836,0.3866,0.3871,0.3879,0.3908,0.3925,0.3993,0.3989,0.3998,0.4005,0.4072,0.4072,0.4072,0.4046,0.4044,0.4043,0,0,0,0,0,0,0.3663,0.3716,0.3729,0.3758,0.3788,0.3835,0.3846,0.3863,0.3893,0.3894,0.393,0.394,0.3967,0.3989,0.3983,0.4026,0.4034,0.4036,0.4011,0.401,0.4008,0.4003,0.4006,0,0,0,0,0,0.3659,0.3684,0.373,0.3751,0.3766,0.3803,0.382,0.3841,0.3873,0.3886,0.3917,0.3947,0.3976,0.3994,0.4023,0.4049,0.4059,0.4058,0.4056,0.4055,0.4056,0.4072,0.4071,0.4073,0.4073,0.4073,0,0,0.3651,0.3684,0.3698,0.3745,0.3771,0.3797,0.3814,0.384,0.3859,0.389,0.3921,0.3944,0.3981,0.4009,0.4023,0.4028,0.4058,0.4055,0.4054,0.4056,0.4072,0.4072,0.4071,0.4073,0.4073,0.4073,0,0,0.3651,0.3678,0.3699,0.3724,0.3763,0.3788,0.3792,0.3836,0.3853,0.3884,0.3908,0.3931,0.3979,0.4004,0.4023,0.4031,0.4048,0.4039,0.4032,0.4046,0.4046,0.4046,0.4049,0.405,0.4041,0.404,0.404,0,0.3637,0.3676,0.3707,0.3732,0.3752,0.3781,0.3802,0.3825,0.3871,0.3884,0.3889,0.395,0.3977,0.4012,0.4013,0.4028,0.4035,0.4035,0.4044,0.4044,0.4045,0.4048,0.4048,0.4039,0.4039,0.4039,0.404,0,0.3657,0.3683,0.3696,0.3739,0.3761,0.3783,0.3818,0.3836,0.3854,0.3878,0.3909,0.3942,0.3978,0.3987,0.4005,0.4024,0.4026,0.4037,0.4045,0.4043,0.4046,0.4047,0.4037,0.4038,0.4038,0.4039,0,0,0.3639,0.3698,0.3702,0.3722,0.3767,0.3788,0.3812,0.3846,0.3861,0.3891,0.3912,0.3952,0.3962,0.3983,0.4004,0.4017,0.4021,0.4026,0.4028,0.4024,0.4044,0.4035,0.4036,0.4032,0.4032,0.4033,0.4041,0,0.3644,0.3689,0.3717,0.375,0.3775,0.3802,0.3823,0.3852,0.3875,0.3899,0.3925,0.3952,0.3963,0.3976,0.399,0.4017,0.4025,0.4017,0.4052,0.4053,0.4042,0.4038,0.403,0.4036,0.4042,0.4042,0.4043,0,0.3657,0.3687,0.3722,0.3763,0.3774,0.3793,0.3826,0.3849,0.3883,0.3898,0.3922,0.3943,0.3969,0.3975,0.4011,0.4005,0.4021,0.4036,0.4037,0.4042,0.4048,0.4043,0.4038,0.4039,0.4045,0.4045,0.4045,0,0.364,0.3689,0.3716,0.3732,0.3781,0.3793,0.3814,0.3847,0.3866,0.3895,0.3908,0.394,0.3957,0.3982,0.4011,0.4012,0.4044,0.4052,0.4058,0.4057,0.4063,0.4063,0.4061,0.4073,0.4073,0.4073,0.4073,0,0.3644,0.3665,0.3709,0.3726,0.375,0.3782,0.3804,0.3827,0.3856,0.3878,0.3903,0.3923,0.396,0.3984,0.4007,0.4033,0.4041,0.4054,0.406,0.4052,0.4051,0.4063,0.4064,0.4073,0.4073,0.4073,0.4073,0,0.363,0.366,0.3692,0.3735,0.3746,0.3762,0.3799,0.3816,0.384,0.3866,0.3875,0.3912,0.3942,0.3973,0.4013,0.4029,0.4054,0.4062,0.4043,0.4046,0.405,0.4049,0.4057,0.4059,0.4069,0.4068,0.4068,0,0.363,0.3647,0.3691,0.3707,0.3727,0.3753,0.3772,0.3804,0.3823,0.3862,0.3874,0.3906,0.3933,0.3979,0.401,0.404,0.405,0.405,0.4054,0.4046,0.405,0.4048,0.405,0.4049,0.4049,0.4048,0.4048,0,0.3628,0.3642,0.3669,0.3701,0.3723,0.3749,0.3777,0.3789,0.3826,0.3846,0.3876,0.3897,0.3938,0.3969,0.4003,0.4025,0.4042,0.4046,0.4049,0.4042,0.403,0.4036,0.4039,0.4046,0.4046,0.4047,0.4047,0.4047,0.3621,0.3637,0.367,0.3699,0.3723,0.3748,0.3766,0.3792,0.3818,0.3854,0.3871,0.3901,0.3934,0.3982,0.4002,0.4026,0.4032,0.4036,0.4037,0.4038,0.4036,0.4025,0.4033,0.4033,0.4033,0.4033,0.4033,0,0.362,0.3643,0.3669,0.3707,0.3729,0.3744,0.3775,0.3793,0.3819,0.3848,0.3873,0.3908,0.3938,0.3971,0.4002,0.4015,0.4024,0.4023,0.4022,0.4027,0.4029,0.4023,0.4015,0.4015,0.4015,0.4015,0.4015,0.4015,0.3622,0.3649,0.3667,0.3706,0.3729,0.3759,0.3775,0.3798,0.3821,0.3859,0.3884,0.3905,0.3935,0.3969,0.3997,0.4006,0.4016,0.4012,0.4023,0.4025,0.4027,0.4028,0.4023,0.4014,0.4014,0.4019,0.4019,0.4019]},{"header":{"parameterUnit":"m.s-1","parameterCategory":1,"la1":30.2991,"la2":30.254,"lo1":-89.0895,"lo2":-89.0444,"dy":0.0017,"dx":0.0017,"nx":28,"ny":28,"refTime":"2024-07-06T21:00:00:Z","depth":0,"parameterNumber":3,"parameterNumberName":"V-component_of_WINDS"},"data":[0,0,0,0,0,0,0,0,0,0,0,0,0,0,0,0,0,0,0,0,0,0,0,0,0,0,0,0,0,0,0,0,0,0,0,0,0,0,0,0,0,0,0,0,0,0,0,0,0,0,0,0,0,0,0,0,0,0,2.1697,2.1696,0,2.1661,2.166,2.166,2.1599,2.1598,2.1596,2.1595,2.1559,2.1559,2.1559,0,0,0,0,0,0,0,0,0,0,0,0,0,2.1712,2.1712,2.1697,2.1696,2.1696,2.1661,2.166,2.166,2.1599,2.1597,2.1596,2.1595,2.1559,2.1559,2.1559,0,0,0,0,0,0,0,0,0,0,0,0,0,2.1694,2.1712,2.1697,2.1661,2.1657,2.1661,2.166,2.166,2.1599,2.1597,2.1596,2.1594,2.1559,2.1559,2.1559,2.1595,0,0,2.156,2.156,0,0,0,0,0,0,0,0,2.1695,2.1693,2.1667,2.1663,2.1659,2.1632,2.1652,2.1638,2.16,2.1621,2.1595,2.1593,2.1585,2.1583,2.158,2.1593,2.1592,2.156,2.156,2.156,2.156,0,0,0,0,0,0,0,2.1696,2.1694,2.1682,2.1666,2.1662,2.1647,2.1642,2.1649,2.1613,2.1619,2.1615,2.1611,2.1583,2.158,2.1579,2.1591,2.156,2.156,2.156,2.156,2.163,2.1632,0,0,0,0,0,0,2.1703,2.1696,2.1683,2.1681,2.1673,2.1648,2.1643,2.1643,2.1613,2.1607,2.1613,2.1609,2.1581,2.1579,2.1577,2.1616,2.156,2.156,2.156,2.1628,2.1631,2.1632,0,0,0,0,0,0,2.1703,2.1702,2.1685,2.1687,2.1684,2.1649,2.165,2.1643,2.164,2.1608,2.1601,2.1617,2.1579,2.1577,2.1591,2.1614,2.156,2.156,2.1626,2.1629,2.1632,2.1694,0,0,0,0,0,0,2.1704,2.1703,2.1716,2.1688,2.1684,2.1699,2.1651,2.1644,2.1641,2.1635,2.161,2.1604,2.1578,2.1591,2.1591,2.1613,2.1561,2.1624,2.1628,2.1631,2.1689,2.1698,2.1706,0,0,0,0,0,2.1705,2.1735,2.1717,2.1716,2.17,2.1701,2.1698,2.1667,2.1643,2.1656,2.1635,2.1605,2.1611,2.1593,2.1592,2.1615,2.1623,2.1627,2.163,2.1686,2.1696,2.1705,0,0,0,0,0,0,2.1767,2.1731,2.171,2.1733,2.172,2.169,2.1706,2.1679,2.1674,2.1668,2.163,2.1625,2.1643,2.163,2.161,2.1647,2.1612,2.1616,2.1654,2.1664,2.1672,2.1674,2.1561,0,0,0,0,0,2.1783,2.1787,2.1755,2.1778,2.1773,2.1741,2.174,2.1717,2.1702,2.1697,2.1677,2.1664,2.1663,2.1663,2.166,2.1687,2.168,2.1703,2.1711,2.1717,2.1721,2.1733,2.1742,2.1645,2.1645,2.1645,0,0,2.1817,2.1798,2.1803,2.179,2.1778,2.1782,2.1737,2.1743,2.1746,2.1698,2.1709,2.1694,2.1677,2.1697,2.1705,2.1687,2.1746,2.1722,2.1728,2.1728,2.1738,2.1748,2.1756,2.1648,2.1648,2.1647,0,0,2.1881,2.1867,2.1884,2.1872,2.1854,2.1832,2.1836,2.181,2.1798,2.1809,2.1772,2.1775,2.1774,2.1763,2.1758,2.1816,2.1788,2.1817,2.1859,2.1871,2.1878,2.1885,2.1905,2.1913,2.1821,2.1821,2.1821,0,2.1925,2.193,2.1896,2.1905,2.19,2.1856,2.1873,2.1863,2.1845,2.1843,2.1823,2.182,2.1805,2.1822,2.1836,2.1833,2.1836,2.1819,2.188,2.1886,2.1892,2.191,2.1918,2.1824,2.1824,2.1824,2.1823,0,2.1985,2.1989,2.2005,2.1988,2.1985,2.1998,2.1965,2.1967,2.1944,2.1924,2.1935,2.1916,2.1908,2.191,2.1888,2.1924,2.1913,2.1887,2.1851,2.1905,2.1922,2.1929,2.1829,2.1828,2.1827,2.1826,0,0,2.2087,2.205,2.2056,2.2048,2.2024,2.2026,2.2037,2.2029,2.203,2.2019,2.2026,2.2026,2.2002,2.1996,2.1972,2.1983,2.2029,2.1956,2.1955,2.1969,2.2066,2.2085,2.2093,2.2011,2.2012,2.2013,2.2067,0,2.2144,2.216,2.2129,2.2152,2.2155,2.2113,2.2122,2.2109,2.209,2.209,2.207,2.207,2.2038,2.2034,2.2043,2.2022,2.2048,2.2018,2.2017,2.2017,2.2021,2.2102,2.2122,2.2174,2.2073,2.2074,2.2075,0,2.2214,2.2206,2.2229,2.2203,2.2203,2.2211,2.2201,2.2201,2.2185,2.2171,2.2163,2.2135,2.2143,2.2109,2.2119,2.2099,2.2097,2.2087,2.2088,2.2086,2.2049,2.2102,2.2189,2.2197,2.2085,2.2084,2.2084,0,2.2284,2.2279,2.2292,2.2286,2.2256,2.2263,2.2251,2.2233,2.223,2.2221,2.2218,2.221,2.2206,2.2201,2.2171,2.2149,2.2184,2.2148,2.2172,2.2173,2.2181,2.218,2.2269,2.2181,2.2181,2.2181,2.2181,0,2.2351,2.2367,2.2323,2.2331,2.2347,2.2311,2.2328,2.2312,2.2296,2.2299,2.2263,2.2267,2.2228,2.2228,2.2205,2.2216,2.2215,2.2203,2.2196,2.2206,2.2207,2.2203,2.2198,2.2183,2.2182,2.2182,2.2181,0,2.2432,2.2404,2.2415,2.2386,2.2379,2.2392,2.2366,2.2372,2.2352,2.2357,2.2356,2.2323,2.2321,2.2291,2.2282,2.2267,2.2287,2.2274,2.2292,2.2288,2.2313,2.2311,2.2401,2.241,2.2318,2.2319,2.232,0,2.2477,2.2487,2.2459,2.2459,2.2449,2.2449,2.2445,2.2411,2.2409,2.239,2.2398,2.2393,2.2386,2.2385,2.236,2.2353,2.2339,2.2371,2.2338,2.2347,2.2338,2.2338,2.2338,2.2378,2.238,2.238,2.2381,0,2.2558,2.2543,2.2539,2.253,2.2527,2.2519,2.2508,2.251,2.2472,2.2471,2.2468,2.2463,2.2454,2.2449,2.2437,2.2424,2.2396,2.2392,2.2397,2.2406,2.2416,2.241,2.2311,2.239,2.2389,2.2388,2.2388,2.2388,2.2621,2.2628,2.2609,2.2606,2.2594,2.2585,2.2589,2.2568,2.2565,2.2555,2.2535,2.2535,2.2517,2.2498,2.2488,2.2487,2.247,2.2478,2.248,2.2482,2.2486,2.2417,2.2485,2.2485,2.2484,2.2484,2.2484,0,2.2699,2.2685,2.2683,2.2668,2.2666,2.264,2.2626,2.2625,2.2626,2.2612,2.2606,2.2602,2.2597,2.2572,2.2564,2.2568,2.2555,2.2567,2.2566,2.2563,2.2502,2.2498,2.2578,2.2578,2.2578,2.2578,2.2577,2.2577,2.274,2.275,2.2733,2.2738,2.2723,2.2723,2.2717,2.2708,2.2696,2.2694,2.2689,2.2673,2.2654,2.2644,2.2637,2.263,2.2628,2.2645,2.2633,2.2577,2.2568,2.2559,2.2555,2.2645,2.2645,2.2694,2.2694,2.2695]}]]